{"data":{"norad_id":58426,"epoch":"2026-05-25T04:44:03.511968Z","epoch_age_seconds":57772,"freshness":"FRESH","line1":"1 58426U 23181B   26145.19726287 -.00000068  00000+0  10812-3 0  9999","line2":"2 58426  49.9598  51.0808 0010893 201.1780 158.8647 13.41488480122659","mean_motion":13.4148848,"eccentricity":0.0010893,"inclination_deg":49.9598,"raan_deg":51.0808,"arg_perigee_deg":201.178,"mean_anomaly_deg":158.8647,"bstar":0.00010812,"rev_number":12265,"period_min":107.34344882335,"perigee_km":1095.5896253537,"apogee_km":1111.8896417876,"semimajor_km":7481.8766335707,"source":"CELESTRAK","updated_at":"2026-05-25T13:38:00.733119Z"}}